Weather in Vozritsy

Russia / Republic of Karelia     62°40′32″N   35°23′18″E
temp.,
°C
wind,
m/s
gust,
m/s
humid.,
%
clouds,
%
prec.,
mm/h
press.,
hPa
HPBL,
m
24 may, tue
tue2400:00+2n51268100 0.0 1010827
03:00+1n51274100 0.0 1010838
06:00+2n5127881 0.0 1010892
09:00+3n5970100 0.0 10111070
12:00+3n5870100 0.0 1013943
15:00+4nne5770100 0.0 1014965
18:00+4nne4676100 0.1 1015839
21:00+3nne2581100 0.1 1016636
25 may, wed
wed2500:00+2nne2587100 0.0 1016362
03:00+1nne2491100 0.0 1017251
06:00+2nne2386100 0.0 1017325
09:00+4n2377100 0.0 1017738
12:00+6n2366100 0.1 1016995
15:00+7nne2363100 0.1 10151112
18:00+7nne2368100 0.0 1015940
21:00+5ne2477100 0.0 1014326
26 may, thu
thu2600:00+3nne238515 0.0 1013100
03:00+3ene1385100 0.0 1012132
06:00+5ene23705 0.0 1011253
09:00+9ese12537 0.0 10091029
12:00+13wsw11446 0.0 10061440
15:00+13wsw324134 0.0 10041626
18:00+12sw334695 0.0 1002697
21:00+8sw2568100 0.0 1000127
27 may, fri
fri2700:00+5sw1172100 0.0 99720
03:00+3ssw237593 0.0 99550
06:00+6s366828 0.0 994213
09:00+11s475537 0.0 993732
12:00+14s56465 0.0 9931253
15:00+15s453981 0.0 9931392
18:00+14s3443100 0.0 993797
21:00+10se3771100 0.1 994333
28 may, sat
sat2800:00+9ese378882 0.1 995346
03:00+8e2693100 0.3 994297
06:00+8ene2695100 0.8 994426
09:00+8ene2595100 1.3 993371
12:00+9ene2595100 0.8 994420
15:00+8ene3696100 2.3 994471
18:00+8ene3795100 1.8 994479
21:00+7ne3896100 3.3 994469